Weather History for Taos, NM

Change the Weather History Date:

Thursday, April 10, 2014

  Actual Average Record
Temperature  
Mean Temperature 50 °F -  
Max Temperature 71 °F 55 °F 71 °F (2002)
Min Temperature 28 °F 24 °F 17 °F (1998)
Degree Days  
Heating Degree Days 16    
Moisture  
Dew Point 10 °F    
Average Humidity 21    
Maximum Humidity 47    
Minimum Humidity 10    
Precipitation  
Precipitation 0.00 in - - ()
Sea Level Pressure  
Sea Level Pressure 30.15 in    
Wind  
Wind Speed 10 mph (NW)    
Max Wind Speed 24 mph    
Max Gust Speed 31 mph    
Visibility 10 miles    
Events      
Averages and records for this station are not official NWS values.
T = Trace of Precipitation, MM = Missing Value Source: NWS Daily Summary

Daily Weather History Graph

Daily Weather History Graph

Search for Another Location

Airport:

Trip Planner

Search our weather history database for the weather conditions in past years. The results will help you decide how hot, cold, wet, or windy it might be!

Date:

Astronomy

Apr. 10, 2014 Rise Set
Actual Time 6:35 AM MDT 7:32 PM MDT
Civil Twilight 6:09 AM MDT 7:58 PM MDT
Nautical Twilight 5:38 AM MDT 8:30 PM MDT
Astronomical Twilight 5:06 AM MDT 9:02 PM MDT
Moon 3:25 PM MDT (4/10) 3:52 AM MDT (4/10)
Length of Visible Light 13h 49m
Length of Day
12h 56m
Waxing Gibbous, 80% of the Moon is Illuminated
Apr 10
Waxing Gibbous
Apr 15
Full
Apr 22
Last Quarter
Apr 29
New
May 6
First Quarter

Hourly Weather History & Observations

Time (MDT) Temp. Windchill Dew Point Humidity Pressure Visibility Wind Dir Wind Speed Gust Speed Precip Events Conditions
12:15 AM 44.6 °F 39.2 °F 10.4 °F 25% 30.16 in 10.0 mi North 10.4 mph - N/A   Clear
12:35 AM 44.6 °F 39.7 °F 10.4 °F 25% 30.16 in 10.0 mi North 9.2 mph - N/A   Clear
12:55 AM 44.6 °F 39.7 °F 12.2 °F 27% 30.16 in 10.0 mi North 9.2 mph - N/A   Clear
1:15 AM 46.4 °F 41.5 °F 12.2 °F 25% 30.16 in 10.0 mi NNW 10.4 mph - N/A   Clear
1:35 AM 44.6 °F 39.7 °F 12.2 °F 27% 30.16 in 10.0 mi NNW 9.2 mph - N/A   Clear
1:55 AM 44.6 °F 39.2 °F 14.0 °F 29% 30.16 in 10.0 mi NNW 10.4 mph - N/A   Clear
2:15 AM 42.8 °F 38.0 °F 14.0 °F 31% 30.16 in 10.0 mi NNW 8.1 mph - N/A   Clear
2:35 AM 39.2 °F 35.0 °F 14.0 °F 36% 30.16 in 10.0 mi North 5.8 mph - N/A   Clear
2:55 AM 37.4 °F 32.1 °F 12.2 °F 36% 30.15 in 10.0 mi North 6.9 mph - N/A   Clear
3:15 AM 35.6 °F 29.9 °F 12.2 °F 38% 30.15 in 10.0 mi North 6.9 mph - N/A   Clear
3:35 AM 33.8 °F 27.7 °F 12.2 °F 41% 30.15 in 10.0 mi North 6.9 mph - N/A   Clear
3:55 AM 33.8 °F 27.7 °F 14.0 °F 44% 30.15 in 10.0 mi North 6.9 mph - N/A   Clear
4:15 AM 33.8 °F - 14.0 °F 44% 30.16 in 10.0 mi Calm Calm - N/A   Clear
4:35 AM 35.6 °F 31.7 °F 15.8 °F 44% 30.16 in 10.0 mi North 4.6 mph - N/A   Clear
4:55 AM 33.8 °F 26.4 °F 12.2 °F 41% 30.16 in 10.0 mi NNE 9.2 mph - N/A   Clear
5:15 AM 33.8 °F - 12.2 °F 41% 30.17 in 10.0 mi Calm Calm - N/A   Clear
5:55 AM 33.8 °F 25.8 °F 14.0 °F 44% 30.17 in 10.0 mi NNE 10.4 mph - N/A   Clear
6:15 AM 35.6 °F 30.7 °F 14.0 °F 41% 30.17 in 10.0 mi NNE 5.8 mph - N/A   Clear
6:35 AM 33.8 °F 29.6 °F 12.2 °F 41% 30.18 in 10.0 mi North 4.6 mph - N/A   Clear
6:55 AM 28.4 °F 21.2 °F 10.4 °F 47% 30.19 in 10.0 mi NNE 6.9 mph - N/A   Clear
7:15 AM 30.2 °F 25.4 °F 12.2 °F 47% 30.19 in 10.0 mi NNE 4.6 mph - N/A   Clear
7:35 AM 41.0 °F 39.0 °F 17.6 °F 39% 30.19 in 10.0 mi North 3.5 mph - N/A   Clear
7:55 AM 35.6 °F 31.7 °F 12.2 °F 38% 30.20 in 10.0 mi North 4.6 mph - N/A   Clear
8:15 AM 41.0 °F - 17.6 °F 39% 30.20 in 10.0 mi Calm Calm - N/A   Clear
8:35 AM 46.4 °F 45.2 °F 17.6 °F 32% 30.20 in 10.0 mi NNW 3.5 mph - N/A   Clear
8:55 AM 50.0 °F - 14.0 °F 24% 30.20 in 10.0 mi West 5.8 mph - N/A   Clear
9:15 AM 53.6 °F - 14.0 °F 21% 30.20 in 10.0 mi West 6.9 mph - N/A   Clear
9:35 AM 55.4 °F - 14.0 °F 20% 30.20 in 10.0 mi West 8.1 mph - N/A   Clear
9:55 AM 59.0 °F - 10.4 °F 15% 30.20 in 10.0 mi West 10.4 mph - N/A   Clear
10:15 AM 60.8 °F - 10.4 °F 14% 30.20 in 10.0 mi WSW 9.2 mph - N/A   Clear
10:35 AM 62.6 °F - 8.6 °F 12% 30.20 in 10.0 mi WNW 8.1 mph 16.1 mph N/A   Clear
10:55 AM 62.6 °F - 8.6 °F 12% 30.20 in 10.0 mi SW 12.7 mph 16.1 mph N/A   Clear
11:15 AM 62.6 °F - 8.6 °F 12% 30.20 in 10.0 mi WNW 10.4 mph 19.6 mph N/A   Clear
11:35 AM 64.4 °F - 10.4 °F 12% 30.18 in 10.0 mi SSW 16.1 mph 19.6 mph N/A   Clear
11:55 AM 64.4 °F - 10.4 °F 12% 30.18 in 10.0 mi WSW 10.4 mph 20.7 mph N/A   Clear
12:15 PM 64.4 °F - 10.4 °F 12% 30.16 in 10.0 mi WSW 15.0 mph 21.9 mph N/A   Clear
12:35 PM 66.2 °F - 10.4 °F 11% 30.16 in 10.0 mi West 15.0 mph 28.8 mph N/A   Clear
12:55 PM 68.0 °F - 10.4 °F 11% 30.15 in 10.0 mi WSW 15.0 mph 20.7 mph N/A   Clear
1:15 PM 69.8 °F - 10.4 °F 10% 30.15 in 10.0 mi WSW 13.8 mph 28.8 mph N/A   Clear
1:35 PM 69.8 °F - 12.2 °F 11% 30.15 in 10.0 mi WNW 19.6 mph 29.9 mph N/A   Clear
1:55 PM 69.8 °F - 12.2 °F 11% 30.15 in 10.0 mi NW 12.7 mph 26.5 mph N/A   Clear
2:15 PM 69.8 °F - 12.2 °F 11% 30.14 in 10.0 mi WNW 19.6 mph 26.5 mph N/A   Clear
2:35 PM 69.8 °F - 12.2 °F 11% 30.13 in 10.0 mi West 17.3 mph 26.5 mph N/A   Clear
2:55 PM 69.8 °F - 12.2 °F 11% 30.12 in 10.0 mi NW 16.1 mph 21.9 mph N/A   Clear
3:15 PM 71.6 °F - 12.2 °F 10% 30.11 in 10.0 mi WNW 20.7 mph 27.6 mph N/A   Clear
3:35 PM 71.6 °F - 12.2 °F 10% 30.10 in 10.0 mi WNW 19.6 mph 26.5 mph N/A   Clear
3:55 PM 71.6 °F - 12.2 °F 10% 30.09 in 10.0 mi WNW 18.4 mph 28.8 mph N/A   Clear
4:15 PM 71.6 °F - 14.0 °F 11% 30.09 in 10.0 mi West 21.9 mph 31.1 mph N/A   Clear
4:35 PM 71.6 °F - 12.2 °F 10% 30.09 in 10.0 mi WNW 21.9 mph 31.1 mph N/A   Clear
4:55 PM 69.8 °F - 12.2 °F 11% 30.09 in 10.0 mi WNW 15.0 mph 25.3 mph N/A   Clear
5:15 PM 71.6 °F - 12.2 °F 10% 30.08 in 10.0 mi WNW 24.2 mph 31.1 mph N/A   Clear
5:35 PM 69.8 °F - 12.2 °F 11% 30.09 in 10.0 mi WNW 19.6 mph 27.6 mph N/A   Clear
5:55 PM 69.8 °F - 12.2 °F 11% 30.09 in 10.0 mi WNW 16.1 mph 26.5 mph N/A   Clear
6:15 PM 68.0 °F - 10.4 °F 11% 30.09 in 10.0 mi West 23.0 mph 28.8 mph N/A   Clear
6:35 PM 66.2 °F - 10.4 °F 11% 30.10 in 10.0 mi West 17.3 mph 26.5 mph N/A   Clear
6:55 PM 66.2 °F - 10.4 °F 11% 30.10 in 10.0 mi West 19.6 mph 24.2 mph N/A   Clear
7:15 PM 64.4 °F - 8.6 °F 11% 30.11 in 10.0 mi WNW 16.1 mph 24.2 mph N/A   Clear
7:35 PM 62.6 °F - 6.8 °F 11% 30.12 in 10.0 mi WNW 17.3 mph - N/A   Clear
7:55 PM 60.8 °F - 6.8 °F 12% 30.13 in 10.0 mi West 10.4 mph - N/A   Clear
8:15 PM 57.2 °F - 3.2 °F 11% 30.14 in 10.0 mi West 11.5 mph - N/A   Clear
8:35 PM 57.2 °F - 3.2 °F 11% 30.15 in 10.0 mi West 11.5 mph - N/A   Clear
8:55 PM 53.6 °F - 1.4 °F 12% 30.16 in 10.0 mi West 11.5 mph - N/A   Clear
9:15 PM 53.6 °F - 1.4 °F 12% 30.17 in 10.0 mi West 12.7 mph - N/A   Clear
9:35 PM 51.8 °F - 1.4 °F 13% 30.17 in 10.0 mi West 11.5 mph - N/A   Clear
9:55 PM 51.8 °F - 1.4 °F 13% 30.17 in 10.0 mi West 11.5 mph - N/A   Clear
10:15 PM 46.4 °F 42.4 °F 1.4 °F 16% 30.17 in 10.0 mi North 8.1 mph - N/A   Clear
10:35 PM 51.8 °F - 3.2 °F 14% 30.17 in 10.0 mi NNW 6.9 mph - N/A   Clear
10:55 PM 50.0 °F - 3.2 °F 15% 30.18 in 10.0 mi North 6.9 mph - N/A   Clear
11:15 PM 44.6 °F 40.7 °F 1.4 °F 17% 30.18 in 10.0 mi NE 6.9 mph - N/A   Clear
11:35 PM 44.6 °F 42.2 °F 6.8 °F 21% 30.18 in 10.0 mi ENE 4.6 mph - N/A   Clear
11:55 PM 42.8 °F 41.1 °F 5.0 °F 21% 30.18 in 10.0 mi NE 3.5 mph - N/A   Clear